1441 visiteurs
Prévisions de votre ville :
Vigilance : 37 départements Mise à jour le 18/10/2019 à 06:08 - Voir la carte

Paris Roissy CDG (95380) le 18/10/2019 à 15:00 Choisir station

15.5°C 47 % SSO Rafales 24 km/h
Vit. moyenne 15 kmh/h

Relevés météo quotidiens pour la station de :

UTC
S: Synop
M: Metar
Loc T°C
(°C)
Td
(°C)
HR
(%)
Vis
(km)
Néb
(octa)
Vent
(km/h)
Pression
(mb)
Précipitations
(mm)
Temps
              MOY
10 min
DIR RAF 1h MESURE VAR SUR 3h    
S 00 h 02h 20.7 16.1 75 30 - - - 4 1012.6 +0.2/3h 0.0/6h - 0.0/3h -
S 01 h 03h 20.2 16.0 77 30 - - - 2 1012.6 0.0/3h 0.0/1h -
S 02 h 04h 18.9 15.4 80 35 - - - 6 1012.3 -0.5/3h 0.0/1h -
S 03 h 05h 18.8 15.3 80 27 - - - 4 1012.1 -0.6/3h 0.0/3h -
S 04 h 06h 17.6 15.0 85 26 - 4 4 1012.5 -0.2/3h 0.0/1h -
S 05 h 07h 18.7 15.2 80 29 - - - 2 1013.0 +0.7/3h 0.0/1h -
S 06 h 08h 21.4 16.6 74 19 - 2 4 1013.2 +1.2/3h 0.0/12h - 0.0/3h - 0.0/24h -
S 07 h 09h 24.4 16.9 63 26 - 4 9 1013.1 +0.8/3h 0.0/1h -
S 08 h 10h 27.6 17.5 54 40 - 6 11 1012.8 +0.1/3h 0.0/1h -
S 09 h 11h 29.8 17.9 49 19 - 2 7 1012.5 -0.4/3h 0.0/3h -
S 10 h 12h 31.1 16.7 42 26 - 6 11 1012.4 -0.5/3h 0.0/1h -
S 11 h 13h 31.8 16.1 39 50 - 11 26 1011.7 -1.0/3h 0.0/1h -
S 12 h 14h 31.4 18.0 45 35 - 17 30 1011.3 -1.2/3h 0.0/6h - 0.0/3h -
S 13 h 15h 31.6 19.3 48 19 - 17 30 1011.4 -1.0/3h 0.0/1h -
S 14 h 16h 30.8 18.2 47 26 - 6 15 1011.1 -0.6/3h 0.0/1h -
S 15 h 17h 32.1 19.0 46 30 7/8 11 44 1010.5 -0.7/3h 0.0/3h
S 16 h 18h 31.9 19.5 48 19 - 15 28 1010.2 -1.1/3h 0.0/1h -
S 17 h 19h 31.4 19.4 49 29 - 13 26 1009.8 -1.3/3h 0.0/1h -
S 18 h 20h 30.4 16.0 42 40 - 7 13 1010.1 -0.5/3h 0.0/12h - 0.0/3h -
S 19 h 21h 28.3 20.1 61 40 - 7 20 1010.6 +0.2/3h 0.0/1h -
S 20 h 22h 26.3 20.4 70 29 - 4 13 1011.1 +1.2/3h 0.0/1h -
S 21 h 23h 26.7 14.5 47 45 - 6 7 1011.4 +1.2/3h 0.0/3h -
S 22 h 00h 26.2 13.3 45 50 - 2 7 1011.5 +0.8/3h 0.0/1h -
S 23 h 01h 26.1 12.9 44 50 - 6 13 1011.3 +0.1/3h 0.0/1h -
evolution des temperatures
cumul des precipitations
vent moyen et rafales
pression atmospherique

Un tiret (-) signifie que les données ne sont pas disponibles.

Passez la souris sur les pictos temps pour avoir plus de précisions. Passez les flèches sur l'icône de la direction du vent pour voir la direction précise en degrés.

Les données de l'heure en cours sont disponibles à partir de H+15 minutes.


S signifie station Synop, plus complète qu'une station Metar (M). Il y a +1h de différence entre l'heure UTC et l'heure légale en hiver et +2h en été.

Td est la mesure du point de rosée.

HR est l'humidité relative/p>

Vis est la visibilité

Néb est la nébulosité du ciel (couverture nuageuse) exprimée en octas (de 0/8 à 8/8).

Vent moy 10 min donne le vent moyen sur les 10 minutes qui précèdent le relevé.

Vent raf 1h donne la rafale maximale mesurée dans l'heure qui précède le relevé.


Les données les plus anciennes remontent à avril 2014.

Les données présentées sur cette page proviennent des stations météo officielles. Les relevés sont effectués aux normes en vigueur (anémomètre à 10m de haut, thermomètre sous abri normalisé à 2m du sol...)

Météo 60 décline toute responsabilité en cas d'absence de données, d'erreurs, de mauvaise utilisation ou interprétation et n'est pas habilité à fournir des certificats intempéries.